Location: Ku?niki
(51.4449°N, 17.8974°E)
Time: 07:38:47
(UTC+00:00)

USA 238 - Pass Details

Date: 18 September 2020
Orbit: 1006 x 1206 km, 63.4° (Epoch: 15 October)

Event Time Altitude Azimuth Distance (km) Brightness Sun altitude
Rises 17:41:43 0° 312° (NW) 3,904 7.8 -8.0°
Reaches altitude 10° 17:44:23 10° 316° (NW) 2,974 7.0 -8.4°
Maximum altitude 17:51:26 62° 37° (NE) 1,278 4.0 -9.5°
Enters shadow 17:58:17 12° 117° (ESE) 2,927 5.3 -10.5°
